OPS 4682 DEB, 14716

Orbit data source: Space-Track

OPS 4682 DEB, 14716 is space debris in LEO originally from a launch on Sat, 03 Apr 1965 UTC launched from the Air Force Western Test Range (AFWTR). Debris objects in space refer to the collection of defunct objects orbiting the Earth. Examples of debris include non-operational satellites, rocket bodies, and fragments generated from explosions, collisions, or faulty payload assembly.

Loading next visibility...
Identifier
14716, 1965-027P
Orbit
LEO
Country
Flag of USUS
Related business
Manufacturer
Unknown
Mission
Spacecraft
Bus & Motor
Unknown
Mass
Unknown
Launch date (UTC)
1965-04-03 (61 years ago)
Launch vehicle
Unknown
Launch site
Air Force Western Test Range (AFWTR)
Object type
Payload
Rocket body
Debris
Shape & HBR
Unknown shape, 0.1 m
Radar Cross Section
Small (<0.1 m²)

Expand to show TLE details & history
Last TLE update: 13 hours ago

TLE from 13 hours ago
0 OPS 4682 DEB
1 14716U 65027P   25295.20709792  .00000921  00000-0  30538-2 0  9991
2 14716  90.2499   8.7207 0029512 217.6908 216.2053 12.99515755408561
Epoch: 2025-10-22T04:58Z
TLE epoch observation values (Epoch: 2025-10-22T04:58:13.260Z)
Latitude
73.75261°
Longitude
-97.57183°
Altitude
1,294.963 km
Speed
7.207 km/s
True Right ascension
00h 31m 28s
True Declination
73° 39' 59"
Sunlit
Object was in daylight at epoch
Visualization orbit readout
Latitude
Unknown
Longitude
Unknown
Altitude
Unknown
Speed
Unknown
Apparent Right ascension
Unknown
Apparent Declination
Unknown
Sunlit
N/A
Visualization observer readout
Local Sidereal Time
12:42:09
Azimuth
Unknown
Elevation
Unknown
Doppler factor
Unknown
Orbital elements
Apogee altitude
1,283.657 km
Perigee altitude
1,238.567 km
Semi-major axis
7,639.249 km
Eccentricity
0.00295
Inclination
90.2499°
RAAN
8.7207°
Arg. of periapsis
217.6908°
True anomaly
216.00614°
Mean anomaly
216.2053°
Eccentric anomaly
216.10566°
Mean motion
3.25063 °/min
Orbital period
110.75 mins
BSTAR
0.0030538
Loading maneuver chart data...
Computing Atmospheric mass density...
Loading historical data...
Loading historical data...
Loading historical data...
Loading historical data...
Loading historical data...
Loading historical data...
Loading historical data...

Documentation

Showing up to 5 results
|